When you browse on this site, cookies collect data to enhance your experience and personalize the content and advertising you see.
Visit our Privacy Policy to learn more. By continuing to use the site, you agree to this use of cookies and data.
  • In Hungary
  • List of Countries
  • For 7 days
  • Water Temperature
  • Weather Map
  • News
  • Weather Widgets
  • user-avatar
    Login

    Hourly Weather Kommunist

    Today, 19 October, Saturday

    Time Temperature Precipitation Wind Pressure Humidity
    00:00 +12°C° 0 mm 2 mps 756 mmHg 81%
    01:00 +10°C° 0 mm 2 mps 756 mmHg 83%
    02:00 +10°C° 0 mm 2 mps 756 mmHg 85%
    03:00 +10°C° 0 mm 2 mps 756 mmHg 89%
    04:00 +10°C° 0 mm 2 mps 757 mmHg 89%
    05:00 +10°C° 0 mm 2 mps 757 mmHg 90%
    06:00 +10°C° 0 mm 2 mps 757 mmHg 91%
    07:00 +12°C° 0 mm 2 mps 757 mmHg 87%
    08:00 +13°C° 0 mm 2 mps 758 mmHg 83%
    09:00 +14°C° 0 mm 2 mps 758 mmHg 78%
    10:00 +15°C° 0 mm 2 mps 758 mmHg 72%
    11:00 +16°C° 0 mm 2 mps 758 mmHg 65%
    12:00 +17°C° 0 mm 3 mps 758 mmHg 58%
    13:00 +18°C° 0 mm 3 mps 758 mmHg 56%
    14:00 +18°C° 0 mm 3 mps 759 mmHg 53%
    15:00 +18°C° 0 mm 3 mps 759 mmHg 50%
    16:00 +16°C° 0 mm 3 mps 759 mmHg 58%
    17:00 +14°C° 0 mm 3 mps 759 mmHg 66%
    18:00 +12°C° 0 mm 3 mps 759 mmHg 73%
    19:00 +11°C° 0 mm 3 mps 760 mmHg 77%
    20:00 +11°C° 0 mm 3 mps 760 mmHg 80%
    21:00 +10°C° 0 mm 3 mps 761 mmHg 83%
    22:00 +9°C° 0 mm 3 mps 761 mmHg 85%
    23:00 +9°C° 0 mm 3 mps 761 mmHg 86%

    Tomorrow, 20 October, Sunday

    Time Temperature Precipitation Wind Pressure Humidity
    00:00 +8°C° 0 mm 3 mps 761 mmHg 88%
    01:00 +8°C° 0 mm 2 mps 762 mmHg 88%
    02:00 +7°C° 0 mm 2 mps 762 mmHg 88%
    03:00 +7°C° 0 mm 2 mps 762 mmHg 87%
    04:00 +7°C° 0 mm 2 mps 763 mmHg 88%
    05:00 +6°C° 0 mm 2 mps 763 mmHg 88%
    06:00 +6°C° 0 mm 2 mps 763 mmHg 89%
    07:00 +7°C° 0 mm 2 mps 763 mmHg 83%
    08:00 +8°C° 0 mm 2 mps 763 mmHg 77%
    09:00 +9°C° 0 mm 2 mps 764 mmHg 71%
    10:00 +10°C° 0 mm 2 mps 764 mmHg 67%
    11:00 +12°C° 0 mm 2 mps 764 mmHg 62%
    12:00 +13°C° 0 mm 2 mps 764 mmHg 58%
    13:00 +14°C° 0 mm 2 mps 764 mmHg 57%
    14:00 +14°C° 0 mm 2 mps 764 mmHg 56%
    15:00 +14°C° 0 mm 2 mps 764 mmHg 55%
    16:00 +13°C° 0 mm 2 mps 764 mmHg 60%
    17:00 +10°C° 0 mm 2 mps 764 mmHg 66%
    18:00 +9°C° 0 mm 2 mps 764 mmHg 71%
    19:00 +9°C° 0 mm 2 mps 764 mmHg 74%
    20:00 +8°C° 0 mm 2 mps 764 mmHg 76%
    21:00 +8°C° 0 mm 2 mps 765 mmHg 78%
    22:00 +8°C° 0 mm 1 mps 765 mmHg 80%
    23:00 +8°C° 0 mm 1 mps 765 mmHg 82%

    Day after tomorrow, 21 October, Monday

    Time Temperature Precipitation Wind Pressure Humidity
    00:00 +8°C° 0 mm 1 mps 765 mmHg 84%
    01:00 +8°C° 0 mm 1 mps 765 mmHg 84%
    02:00 +8°C° 0 mm 1 mps 765 mmHg 85%
    03:00 +8°C° 0 mm 1 mps 765 mmHg 85%
    04:00 +8°C° 0 mm 1 mps 765 mmHg 86%
    05:00 +8°C° 0 mm 1 mps 765 mmHg 87%
    06:00 +8°C° 0 mm 1 mps 765 mmHg 88%
    07:00 +9°C° 0 mm 1 mps 765 mmHg 82%
    08:00 +10°C° 0 mm 1 mps 765 mmHg 75%
    09:00 +11°C° 0 mm 1 mps 765 mmHg 69%
    10:00 +13°C° 0 mm 2 mps 765 mmHg 64%
    11:00 +14°C° 0 mm 2 mps 765 mmHg 60%
    12:00 +14°C° 0 mm 3 mps 765 mmHg 55%
    13:00 +16°C° 0 mm 3 mps 764 mmHg 54%
    14:00 +16°C° 0 mm 3 mps 764 mmHg 53%
    15:00 +16°C° 0 mm 3 mps 764 mmHg 52%
    16:00 +14°C° 0 mm 3 mps 763 mmHg 58%
    17:00 +13°C° 0 mm 2 mps 763 mmHg 63%
    18:00 +12°C° 0 mm 2 mps 763 mmHg 69%
    19:00 +12°C° 0 mm 2 mps 763 mmHg 71%
    20:00 +10°C° 0 mm 3 mps 763 mmHg 73%
    21:00 +10°C° 0 mm 3 mps 762 mmHg 76%
    22:00 +9°C° 0 mm 3 mps 762 mmHg 77%
    23:00 +9°C° 0 mm 3 mps 762 mmHg 78%

    22 October, Tuesday

    Time Temperature Precipitation Wind Pressure Humidity
    00:00 +8°C° 0 mm 4 mps 761 mmHg 79%
    01:00 +8°C° 0 mm 4 mps 761 mmHg 80%
    02:00 +8°C° 0 mm 4 mps 761 mmHg 80%
    03:00 +7°C° 0 mm 4 mps 760 mmHg 81%
    04:00 +7°C° 0 mm 4 mps 760 mmHg 81%
    05:00 +7°C° 0 mm 4 mps 760 mmHg 80%
    06:00 +7°C° 0 mm 4 mps 760 mmHg 80%
    07:00 +8°C° 0 mm 4 mps 760 mmHg 75%
    08:00 +10°C° 0 mm 5 mps 760 mmHg 70%
    09:00 +12°C° 0 mm 5 mps 759 mmHg 66%
    10:00 +12°C° 0 mm 4 mps 759 mmHg 66%
    11:00 +13°C° 0 mm 4 mps 759 mmHg 67%
    12:00 +13°C° 0 mm 4 mps 759 mmHg 68%
    13:00 +13°C° 0.2 mm 4 mps 759 mmHg 73%
    14:00 +12°C° 0.2 mm 4 mps 759 mmHg 78%
    15:00 +12°C° 0.2 mm 4 mps 759 mmHg 83%
    16:00 +11°C° 0 mm 3 mps 759 mmHg 86%
    17:00 +11°C° 0 mm 3 mps 759 mmHg 89%
    18:00 +10°C° 0 mm 2 mps 759 mmHg 91%
    19:00 +10°C° 0 mm 2 mps 759 mmHg 92%
    20:00 +10°C° 0 mm 2 mps 760 mmHg 92%
    21:00 +9°C° 0 mm 2 mps 760 mmHg 92%
    22:00 +9°C° 0 mm 2 mps 760 mmHg 92%
    23:00 +9°C° 0 mm 2 mps 760 mmHg 92%

    23 October, Wednesday

    Time Temperature Precipitation Wind Pressure Humidity
    00:00 +8°C° 0 mm 2 mps 760 mmHg 91%
    01:00 +8°C° 0 mm 2 mps 760 mmHg 91%
    02:00 +8°C° 0 mm 2 mps 760 mmHg 90%
    03:00 +8°C° 0 mm 1 mps 760 mmHg 90%
    04:00 +8°C° 0 mm 1 mps 761 mmHg 90%
    05:00 +8°C° 0 mm 1 mps 761 mmHg 90%
    06:00 +8°C° 0 mm 1 mps 761 mmHg 90%
    07:00 +9°C° 0 mm 1 mps 761 mmHg 86%
    08:00 +10°C° 0 mm 1 mps 761 mmHg 81%
    09:00 +11°C° 0 mm 1 mps 761 mmHg 77%
    10:00 +12°C° 0 mm 1 mps 761 mmHg 71%
    11:00 +13°C° 0 mm 2 mps 761 mmHg 66%
    12:00 +14°C° 0 mm 2 mps 761 mmHg 60%
    13:00 +14°C° 0 mm 2 mps 761 mmHg 57%
    14:00 +15°C° 0 mm 2 mps 761 mmHg 54%
    15:00 +15°C° 0 mm 2 mps 761 mmHg 50%
    16:00 +13°C° 0 mm 1 mps 761 mmHg 55%
    17:00 +12°C° 0 mm 1 mps 761 mmHg 60%
    18:00 +11°C° 0 mm 1 mps 761 mmHg 64%
    19:00 +10°C° 0 mm 1 mps 761 mmHg 65%
    20:00 +10°C° 0 mm 1 mps 761 mmHg 66%
    21:00 +9°C° 0 mm 2 mps 761 mmHg 67%
    22:00 +9°C° 0 mm 2 mps 761 mmHg 70%
    23:00 +8°C° 0 mm 2 mps 761 mmHg 72%

    24 October, Thursday

    Time Temperature Precipitation Wind Pressure Humidity
    00:00 +8°C° 0 mm 2 mps 761 mmHg 74%
    01:00 +8°C° 0 mm 3 mps 760 mmHg 75%
    02:00 +8°C° 0 mm 3 mps 760 mmHg 77%
    03:00 +8°C° 0 mm 3 mps 760 mmHg 79%
    04:00 +8°C° 0 mm 3 mps 760 mmHg 80%
    05:00 +8°C° 0 mm 3 mps 760 mmHg 81%
    06:00 +8°C° 0 mm 3 mps 760 mmHg 82%
    07:00 +8°C° 0 mm 4 mps 760 mmHg 78%
    08:00 +11°C° 0 mm 4 mps 760 mmHg 73%
    09:00 +12°C° 0 mm 4 mps 760 mmHg 68%
    10:00 +14°C° 0 mm 5 mps 760 mmHg 64%
    11:00 +15°C° 0 mm 5 mps 759 mmHg 59%
    12:00 +17°C° 0 mm 5 mps 759 mmHg 54%
    13:00 +17°C° 0 mm 5 mps 759 mmHg 54%
    14:00 +17°C° 0 mm 5 mps 759 mmHg 53%
    15:00 +19°C° 0 mm 5 mps 759 mmHg 52%
    16:00 +17°C° 0 mm 4 mps 759 mmHg 57%
    17:00 +15°C° 0 mm 4 mps 759 mmHg 63%
    18:00 +14°C° 0 mm 3 mps 759 mmHg 68%
    19:00 +13°C° 0 mm 3 mps 759 mmHg 70%
    20:00 +13°C° 0 mm 3 mps 759 mmHg 72%
    21:00 +12°C° 0 mm 3 mps 759 mmHg 74%
    22:00 +12°C° 0 mm 3 mps 759 mmHg 75%
    23:00 +12°C° 0 mm 3 mps 759 mmHg 76%
    Show more